ASA446 KSEA-KGEG

Flight info

Callsign ASA446
Flight time 0h 35m
Altitude 29000
Route MONTN2 SEA ZADON ZELAK ZIRAN ZOOMR ZOOMR2
Aircraft E75L/M-L/S

Departure

Time 2026-05-05 01:50
Airport Seattle–Tacoma International Airport (KSEA)

Arrival

Time 2026-05-05 02:25
Airport Spokane International Airport (KGEG)
Time Latitude Longitude Altitude Speed Heading
2026-05-05 01:10 47.44661 -122.30340 402 ft 0 kts 223°
2026-05-05 01:38 47.44666 -122.30333 400 ft 4 kts 222°
2026-05-05 01:39 47.44684 -122.30304 403 ft 4 kts 245°
2026-05-05 01:39 47.44683 -122.30282 403 ft 0 kts 308°
2026-05-05 01:44 47.44686 -122.30287 401 ft 3 kts 310°
2026-05-05 01:44 47.44725 -122.30335 404 ft 11 kts 322°
2026-05-05 01:44 47.44781 -122.30411 404 ft 11 kts 312°
2026-05-05 01:45 47.44806 -122.30515 405 ft 11 kts 270°
2026-05-05 01:45 47.44831 -122.30624 404 ft 12 kts 337°
2026-05-05 01:45 47.44917 -122.30628 406 ft 12 kts 357°
2026-05-05 01:45 47.44999 -122.30629 408 ft 11 kts 358°
2026-05-05 01:46 47.45076 -122.30626 412 ft 11 kts
2026-05-05 01:46 47.45159 -122.30623 414 ft 13 kts
2026-05-05 01:46 47.45222 -122.30626 417 ft 8 kts
2026-05-05 01:46 47.45274 -122.30625 416 ft 7 kts
2026-05-05 01:47 47.45348 -122.30624 419 ft 14 kts
2026-05-05 01:47 47.45456 -122.30623 421 ft 16 kts 359°
2026-05-05 01:47 47.45565 -122.30622 431 ft 16 kts
2026-05-05 01:47 47.45677 -122.30621 428 ft 17 kts
2026-05-05 01:48 47.45800 -122.30622 424 ft 19 kts 360°
2026-05-05 01:48 47.45935 -122.30617 434 ft 20 kts 360°
2026-05-05 01:48 47.46075 -122.30618 431 ft 21 kts 360°
2026-05-05 01:48 47.46230 -122.30616 439 ft 23 kts
2026-05-05 01:49 47.46356 -122.30628 434 ft 13 kts 330°
2026-05-05 01:49 47.46363 -122.30745 433 ft 14 kts 229°
2026-05-05 01:49 47.46266 -122.30774 432 ft 16 kts 181°
2026-05-05 01:49 47.46032 -122.30778 428 ft 75 kts 180°
2026-05-05 01:50 47.45179 -122.30785 476 ft 162 kts 180°
2026-05-05 01:50 47.43962 -122.30790 1452 ft 182 kts 181°
2026-05-05 01:50 47.42696 -122.30776 2031 ft 171 kts 179°
2026-05-05 01:50 47.41486 -122.30689 2407 ft 192 kts 178°
2026-05-05 01:51 47.40036 -122.30758 3432 ft 216 kts 185°
2026-05-05 01:51 47.38488 -122.30942 4880 ft 231 kts 183°
2026-05-05 01:51 47.36826 -122.30847 6271 ft 248 kts 166°
2026-05-05 01:51 47.35322 -122.29569 7611 ft 264 kts 134°
2026-05-05 01:52 47.34432 -122.27151 8971 ft 278 kts 102°
2026-05-05 01:52 47.34502 -122.24289 10413 ft 288 kts 73°
2026-05-05 01:52 47.35460 -122.21634 11634 ft 301 kts 57°
2026-05-05 01:52 47.36623 -122.18984 12834 ft 314 kts 56°
2026-05-05 01:53 47.37846 -122.16217 14025 ft 326 kts 57°
2026-05-05 01:53 47.39086 -122.13377 15294 ft 333 kts 57°
2026-05-05 01:53 47.40353 -122.10470 16501 ft 340 kts 57°
2026-05-05 01:53 47.41631 -122.07538 17626 ft 347 kts 57°
2026-05-05 01:54 47.42945 -122.04522 18701 ft 352 kts 57°
2026-05-05 01:54 47.44283 -122.01446 19724 ft 359 kts 57°
2026-05-05 01:54 47.45641 -121.98322 20710 ft 364 kts 57°
2026-05-05 01:54 47.47027 -121.95130 21611 ft 371 kts 57°
2026-05-05 01:55 47.48434 -121.91888 22463 ft 377 kts 57°
2026-05-05 01:55 47.49858 -121.88599 23361 ft 381 kts 57°
2026-05-05 01:55 47.51299 -121.85272 24154 ft 386 kts 57°
2026-05-05 01:55 47.52756 -121.81899 24943 ft 391 kts 57°
2026-05-05 01:56 47.54227 -121.78492 25662 ft 396 kts 57°
2026-05-05 01:56 47.55655 -121.74980 26331 ft 401 kts 63°
2026-05-05 01:56 47.56667 -121.71161 26977 ft 405 kts 74°
2026-05-05 01:56 47.57190 -121.67032 27555 ft 411 kts 85°
2026-05-05 01:57 47.57185 -121.62771 28104 ft 417 kts 95°
2026-05-05 01:57 47.56698 -121.58516 28667 ft 421 kts 100°
2026-05-05 01:57 47.56231 -121.54176 28887 ft 434 kts 98°
2026-05-05 01:57 47.55952 -121.49645 28970 ft 449 kts 92°
2026-05-05 01:58 47.55848 -121.44948 29013 ft 464 kts 91°
2026-05-05 01:58 47.55769 -121.40109 29020 ft 478 kts 91°
2026-05-05 01:58 47.55693 -121.35108 29020 ft 491 kts 91°
2026-05-05 01:58 47.55614 -121.29991 29018 ft 504 kts 91°
2026-05-05 01:59 47.55532 -121.24786 29550 ft 502 kts 91°
2026-05-05 01:59 47.55450 -121.19745 29511 ft 485 kts 91°
2026-05-05 01:59 47.55368 -121.14893 29398 ft 458 kts 91°
2026-05-05 01:59 47.55289 -121.10302 29319 ft 434 kts 91°
2026-05-05 02:00 47.55132 -121.01514 29279 ft 430 kts 91°
2026-05-05 02:00 47.54968 -120.92668 29284 ft 429 kts 91°
2026-05-05 02:01 47.54797 -120.83833 29275 ft 432 kts 91°
2026-05-05 02:01 47.54619 -120.75016 29285 ft 423 kts 91°
2026-05-05 02:02 47.54437 -120.66310 29278 ft 423 kts 92°
2026-05-05 02:02 47.54248 -120.57630 29215 ft 423 kts 92°
2026-05-05 02:03 47.54152 -120.53283 29094 ft 421 kts 92°
2026-05-05 02:03 47.54054 -120.48955 29034 ft 421 kts 92°
2026-05-05 02:03 47.53815 -120.40283 29001 ft 422 kts 94°
2026-05-05 02:04 47.53432 -120.31568 28998 ft 422 kts 94°
2026-05-05 02:04 47.53037 -120.22989 29008 ft 424 kts 94°
2026-05-05 02:05 47.52631 -120.14268 28998 ft 424 kts 94°
2026-05-05 02:05 47.52425 -120.09898 28618 ft 425 kts 94°
2026-05-05 02:05 47.52218 -120.05538 28087 ft 426 kts 94°
2026-05-05 02:06 47.52007 -120.01139 27652 ft 428 kts 94°
2026-05-05 02:06 47.51796 -119.96761 27341 ft 425 kts 94°
2026-05-05 02:06 47.51586 -119.92454 27049 ft 423 kts 94°
2026-05-05 02:06 47.51375 -119.88124 26753 ft 421 kts 94°
2026-05-05 02:07 47.51160 -119.83797 26454 ft 420 kts 94°
2026-05-05 02:07 47.50946 -119.79499 26154 ft 417 kts 94°
2026-05-05 02:07 47.50733 -119.75229 25855 ft 415 kts 94°
2026-05-05 02:07 47.50518 -119.70988 25555 ft 413 kts 94°
2026-05-05 02:08 47.50303 -119.66758 25256 ft 411 kts 94°
2026-05-05 02:08 47.50087 -119.62549 24973 ft 409 kts 94°
2026-05-05 02:08 47.49871 -119.58359 24725 ft 408 kts 94°
2026-05-05 02:08 47.49653 -119.54175 24476 ft 407 kts 94°
2026-05-05 02:09 47.49437 -119.50022 24227 ft 404 kts 94°
2026-05-05 02:09 47.49218 -119.45882 23979 ft 403 kts 94°
2026-05-05 02:09 47.49002 -119.41803 23740 ft 402 kts 94°
2026-05-05 02:09 47.48782 -119.37702 23482 ft 399 kts 94°
2026-05-05 02:10 47.48561 -119.33608 23233 ft 399 kts 94°
2026-05-05 02:10 47.48341 -119.29530 22983 ft 397 kts 95°
2026-05-05 02:10 47.48118 -119.25464 22731 ft 395 kts 95°
2026-05-05 02:10 47.47897 -119.21426 22482 ft 393 kts 95°
2026-05-05 02:11 47.47675 -119.17398 22232 ft 392 kts 95°
2026-05-05 02:11 47.47451 -119.13389 21982 ft 391 kts 95°
2026-05-05 02:11 47.47228 -119.09390 21732 ft 389 kts 95°
2026-05-05 02:11 47.47004 -119.05413 21482 ft 387 kts 95°
2026-05-05 02:12 47.46779 -119.01452 21232 ft 386 kts 95°
2026-05-05 02:12 47.46332 -118.93615 20734 ft 383 kts 95°
2026-05-05 02:12 47.46105 -118.89702 20484 ft 382 kts 95°
2026-05-05 02:13 47.45879 -118.85794 20234 ft 381 kts 95°
2026-05-05 02:13 47.45652 -118.81910 19984 ft 379 kts 95°
2026-05-05 02:13 47.45423 -118.78022 19732 ft 377 kts 95°
2026-05-05 02:13 47.45196 -118.74156 19480 ft 376 kts 95°
2026-05-05 02:14 47.44967 -118.70315 19229 ft 375 kts 95°
2026-05-05 02:14 47.44738 -118.66477 18980 ft 374 kts 95°
2026-05-05 02:14 47.44509 -118.62662 18728 ft 372 kts 95°
2026-05-05 02:14 47.44279 -118.58856 18483 ft 371 kts 95°
2026-05-05 02:15 47.44049 -118.55075 18229 ft 370 kts 95°
2026-05-05 02:15 47.43821 -118.51348 17982 ft 368 kts 95°
2026-05-05 02:15 47.43591 -118.47589 17733 ft 367 kts 95°
2026-05-05 02:15 47.43359 -118.43846 17482 ft 365 kts 95°
2026-05-05 02:16 47.43127 -118.40112 17092 ft 365 kts 95°
2026-05-05 02:16 47.42916 -118.36392 16497 ft 361 kts 91°
2026-05-05 02:16 47.43319 -118.32773 15800 ft 358 kts 69°
2026-05-05 02:16 47.44336 -118.29394 15121 ft 353 kts 64°
2026-05-05 02:17 47.45341 -118.26164 14459 ft 349 kts 66°
2026-05-05 02:17 47.46153 -118.22812 13777 ft 345 kts 76°
2026-05-05 02:17 47.46599 -118.19345 13107 ft 342 kts 81°
2026-05-05 02:17 47.46952 -118.15885 12434 ft 339 kts 80°
2026-05-05 02:18 47.47422 -118.12476 11759 ft 336 kts 77°
2026-05-05 02:18 47.47918 -118.09124 10961 ft 325 kts 77°
2026-05-05 02:18 47.48392 -118.05978 10110 ft 304 kts 77°
2026-05-05 02:18 47.48844 -118.02988 9250 ft 292 kts 77°
2026-05-05 02:19 47.49278 -118.00100 8417 ft 284 kts 77°
2026-05-05 02:19 47.49705 -117.97264 7586 ft 283 kts 77°
2026-05-05 02:19 47.50133 -117.94444 6778 ft 285 kts 78°
2026-05-05 02:19 47.50455 -117.91553 6095 ft 283 kts 82°
2026-05-05 02:20 47.50728 -117.88676 5681 ft 281 kts 82°
2026-05-05 02:20 47.50991 -117.85827 5262 ft 278 kts 82°
2026-05-05 02:20 47.51248 -117.83012 4936 ft 272 kts 82°
2026-05-05 02:20 47.51491 -117.80347 5032 ft 252 kts 82°
2026-05-05 02:21 47.51721 -117.77831 5115 ft 244 kts 82°
2026-05-05 02:21 47.51947 -117.75340 5152 ft 246 kts 82°
2026-05-05 02:21 47.52170 -117.72891 5137 ft 230 kts 82°
2026-05-05 02:21 47.52377 -117.70622 5137 ft 216 kts 82°
2026-05-05 02:22 47.52751 -117.68461 4995 ft 218 kts 69°
2026-05-05 02:22 47.53442 -117.66556 4813 ft 199 kts 52°
2026-05-05 02:22 47.54332 -117.65110 4592 ft 184 kts 46°
2026-05-05 02:22 47.55199 -117.63753 4300 ft 178 kts 46°
2026-05-05 02:23 47.56035 -117.62468 4005 ft 171 kts 45°
2026-05-05 02:23 47.56870 -117.61266 3750 ft 167 kts 44°
2026-05-05 02:23 47.57655 -117.60071 3550 ft 157 kts 47°
2026-05-05 02:23 47.58408 -117.58893 3220 ft 158 kts 46°
2026-05-05 02:24 47.59176 -117.57752 2990 ft 155 kts 45°
2026-05-05 02:24 47.59945 -117.56611 2753 ft 156 kts 45°
2026-05-05 02:24 47.60709 -117.55470 2508 ft 156 kts 46°
2026-05-05 02:24 47.61456 -117.54343 2373 ft 144 kts 45°
2026-05-05 02:25 47.62041 -117.53453 2372 ft 80 kts 46°
2026-05-05 02:25 47.62280 -117.53159 2375 ft 38 kts 27°
2026-05-05 02:25 47.62458 -117.53075 2373 ft 13 kts 17°
2026-05-05 02:25 47.62519 -117.53106 2373 ft 7 kts 282°
2026-05-05 02:26 47.62512 -117.53152 2373 ft 2 kts 225°
2026-05-05 02:26 47.62491 -117.53183 2373 ft 8 kts 225°
2026-05-05 02:26 47.62429 -117.53278 2373 ft 17 kts 223°
2026-05-05 02:26 47.62354 -117.53389 2373 ft 15 kts 226°
2026-05-05 02:27 47.62273 -117.53512 2372 ft 18 kts 225°
2026-05-05 02:27 47.62196 -117.53628 2372 ft 10 kts 232°
2026-05-05 02:27 47.62195 -117.53715 2372 ft 2 kts 314°
2026-05-05 02:27 47.62218 -117.53746 2372 ft 8 kts 317°
2026-05-05 02:28 47.62266 -117.53831 2372 ft 11 kts 284°
2026-05-05 02:28 47.62273 -117.53921 2372 ft 5 kts 314°
2026-05-05 02:28 47.62302 -117.53928 2372 ft 5 kts
2026-05-05 02:28 47.62333 -117.53927 2372 ft 4 kts
2026-05-05 02:29 47.62339 -117.53927 2372 ft 0 kts 359°